Wind_Speed
28 28 28 28 28 27 26 26 26 26 26 26 26 26 25 26 27 27 28 29 29 30 31 32 31 30 29 29 30 31 32 33 33 34 35 36 39 40 41 42 44 46 49 51 52 53 54 55 56 57 56 55 53 53 52 51 51 52 53 53 52 52 50 48 47 46 45 45 44 46 50 52 50 45 39 38 41 40 33 28 27 28 35 49 56
30 30 31 31 30 29 29 29 29 29 28 29 29 28 26 27 27 28 28 29 30 31 32 33 32 31 31 31 32 33 33 34 35 35 36 38 39 41 43 44 45 48 50 52 53 54 56 56 58 58 57 55 53 53 52 51 52 54 54 54 54 52 49 47 48 47 45 44 45 48 53 53 47 41 38 42 46 42 37 36 38 44 52 60 64
32 33 33 33 32 32 32 32 31 31 31 31 30 29 28 28 29 30 30 30 31 32 33 34 34 33 32 33 35 35 35 35 36 36 37 39 40 43 44 45 47 48 50 52 55 55 56 58 58 58 57 54 52 52 52 52 54 55 55 55 54 52 49 48 49 48 45 44 45 49 53 52 47 42 42 48 50 47 47 51 56 63 68 72 73
35 35 35 35 34 34 34 34 33 33 32 31 31 30 30 30 31 32 32 32 32 33 34 36 36 34 34 36 37 37 36 36 37 38 39 40 42 44 45 46 47 48 50 53 55 56 58 58 58 58 57 53 50 51 51 53 56 57 56 56 54 52 50 50 49 47 46 46 45 47 52 51 47 42 44 51 53 51 53 55 62 70 74 76 77
36 36 36 36 36 35 35 35 35 34 33 33 32 32 32 33 34 34 34 34 34 34 35 37 37 35 35 37 39 38 37 37 39 40 41 42 44 45 46 47 47 48 50 52 55 57 58 58 59 59 55 50 48 49 51 55 58 58 57 56 54 52 52 51 49 47 47 47 45 47 51 50 47 45 49 55 53 51 55 60 68 74 76 76 76
37 37 38 37 37 36 36 36 36 35 35 35 34 34 35 36 36 36 36 36 36 36 36 38 38 36 37 39 40 39 39 40 41 42 43 44 45 47 48 48 48 49 50 52 56 58 58 59 59 55 49 47 47 48 52 58 60 59 58 56 53 53 53 51 49 47 46 46 47 49 50 49 50 51 54 56 55 57 64 71 75 77 77 77 77
39 39 39 39 38 38 37 37 37 37 37 37 37 38 38 39 39 38 38 38 38 38 38 39 39 39 39 41 42 41 42 42 43 44 44 45 47 48 48 49 49 49 50 53 56 58 61 61 54 47 45 45 47 51 56 60 61 60 58 55 54 54 53 50 48 46 45 45 48 52 52 51 53 54 56 57 58 64 71 75 78 79 79 80 80
41 41 41 41 41 40 39 39 40 40 40 40 40 41 41 42 41 40 40 40 41 40 40 41 41 41 42 43 43 44 44 45 45 45 46 47 48 49 49 50 51 50 51 54 58 62 62 54 47 44 44 45 52 58 60 62 63 61 58 55 55 54 52 49 47 45 44 44 48 52 51 51 54 57 59 61 63 68 74 78 81 83 84 85 86
44 44 44 44 44 43 42 42 43 43 43 44 44 44 44 44 43 42 42 42 43 43 43 44 45 45 45 45 45 46 48 47 47 48 48 49 50 50 50 51 52 52 52 54 61 63 54 47 47 45 42 50 61 63 61 62 64 62 58 56 56 55 52 49 47 45 43 45 50 52 50 52 57 61 63 66 68 73 79 83 86 88 90 91 91
47 47 48 48 47 46 45 45 46 46 46 46 46 47 47 46 45 44 44 45 46 47 46 47 48 48 48 48 48 49 50 49 49 50 50 51 52 53 52 52 53 52 52 57 62 55 45 45 47 42 45 60 66 59 56 62 65 62 59 57 56 55 52 50 48 45 44 47 52 52 51 55 61 64 66 69 72 78 83 87 90 92 94 94 93
50 50 51 52 51 49 48 48 48 48 49 49 49 49 49 48 47 47 47 47 49 49 49 50 52 51 50 50 50 52 52 50 52 53 53 54 55 55 54 54 54 53 53 58 56 44 40 45 42 41 54 64 58 50 54 61 65 63 59 58 57 56 53 52 49 46 46 51 53 53 54 59 64 66 70 72 76 82 86 89 91 93 95 96 95
53 53 54 54 53 52 51 51 51 51 52 52 52 52 51 50 50 50 50 50 51 51 53 54 55 54 53 53 53 54 53 53 55 55 55 56 57 58 57 56 55 55 56 57 52 44 44 46 42 46 56 53 45 48 54 59 64 65 60 59 59 56 54 52 48 47 50 53 55 56 60 64 66 69 73 76 80 84 88 91 94 95 97 97 97
56 55 56 55 55 55 54 53 54 54 55 55 55 55 54 53 53 53 53 54 53 53 55 57 58 57 57 56 56 56 56 56 57 57 58 59 60 60 60 58 57 59 58 56 53 53 53 50 48 53 53 43 39 44 48 56 64 64 60 59 59 56 55 53 49 49 52 54 57 61 64 66 68 71 74 78 82 86 90 93 96 98 99 99 99
58 58 58 57 57 58 58 57 57 58 57 57 57 57 56 56 56 56 57 57 56 56 57 59 60 60 60 60 59 58 58 59 59 60 61 62 63 63 62 60 60 61 60 57 56 58 58 54 54 57 53 44 40 40 43 54 62 62 60 59 58 57 56 53 50 52 54 54 58 63 67 68 70 72 75 80 84 88 92 95 98 99 101 101 100
61 61 60 59 60 61 61 61 61 60 60 59 58 58 58 58 59 59 60 61 60 60 60 61 63 63 63 63 62 61 61 61 62 63 63 65 66 65 63 63 63 64 62 60 61 62 61 59 58 57 53 49 45 43 46 53 57 59 60 58 58 58 56 53 52 53 54 55 59 64 67 70 72 74 78 82 86 90 94 97 99 101 102 101 101
64 63 63 63 63 63 64 64 64 63 62 61 60 60 60 61 61 62 63 64 64 63 63 64 66 66 66 66 65 64 64 64 64 65 66 68 68 67 66 66 66 66 65 64 64 65 64 61 59 56 53 50 46 46 49 51 53 57 57 57 58 59 58 55 54 55 56 58 62 66 68 70 74 77 80 84 88 92 96 98 100 102 103 102 101
68 67 67 67 67 67 67 67 67 67 66 64 63 63 63 63 64 65 65 67 68 67 67 68 69 68 69 69 68 68 67 67 67 68 69 70 70 68 68 69 69 68 67 67 67 67 65 62 59 57 54 49 46 47 49 51 53 55 55 55 57 60 59 57 56 57 58 60 64 67 69 71 75 78 82 86 90 95 98 100 102 104 104 103 101
72 72 72 73 73 72 71 70 70 70 70 68 67 66 66 66 67 68 68 69 70 71 71 71 72 72 72 72 71 71 70 69 70 70 72 73 71 70 70 70 70 70 69 69 69 68 67 64 60 57 54 50 48 47 48 51 54 54 54 54 57 60 61 59 58 59 60 63 66 68 70 73 76 80 84 88 93 97 100 102 104 106 105 103 101
75 76 77 78 78 76 74 73 73 73 73 72 71 70 70 70 70 71 71 71 72 74 75 75 75 76 76 76 75 73 72 72 73 73 74 74 72 71 72 71 71 72 71 70 70 68 66 64 61 57 54 51 49 48 48 52 54 54 54 55 58 61 62 61 60 61 63 65 68 69 71 75 79 82 86 90 94 98 100 103 105 107 106 104 102
77 80 82 82 81 79 77 76 76 76 76 76 75 74 74 74 74 74 74 75 75 75 77 78 79 79 79 78 76 74 74 75 75 75 77 76 74 73 73 72 73 74 73 71 69 66 65 64 61 57 53 51 49 47 49 52 54 55 56 56 59 62 64 63 62 63 66 68 69 71 74 78 81 84 88 92 96 99 101 104 106 107 106 104 101
75 79 82 83 83 81 80 80 80 80 79 78 78 79 78 77 77 77 78 79 80 78 79 81 82 81 81 80 78 76 77 77 77 78 79 77 75 74 74 73 73 73 71 69 66 64 64 63 60 56 53 51 48 48 50 53 55 56 57 58 60 63 65 65 65 66 68 70 71 73 76 80 83 86 90 94 97 99 102 105 107 108 107 104 102
68 72 76 79 81 81 82 82 83 83 82 81 82 83 82 80 79 79 80 82 83 84 83 83 84 83 82 81 80 80 80 79 79 81 81 78 76 75 74 73 72 69 67 64 63 62 62 61 58 55 53 50 48 49 52 54 55 56 58 59 62 65 66 67 67 69 70 71 72 74 78 81 84 87 92 95 98 100 103 106 108 109 107 104 102
62 64 67 70 73 75 78 80 82 83 84 84 85 87 85 81 80 82 82 83 84 86 88 88 88 86 84 83 83 83 82 81 82 83 81 79 77 75 73 71 69 65 62 60 60 61 61 59 56 54 52 50 49 50 53 55 56 57 59 60 63 66 68 68 69 70 71 72 74 76 79 83 86 89 94 96 98 101 104 106 109 109 107 105 103
60 61 62 63 65 67 70 73 77 79 81 83 85 87 86 83 81 82 83 84 84 85 87 90 90 87 84 84 84 83 82 82 83 83 81 78 75 73 70 68 65 61 59 59 60 60 58 56 54 53 51 50 50 51 54 55 56 58 60 62 65 67 69 70 71 71 72 73 75 78 81 84 87 91 95 97 99 101 104 107 109 108 106 105 103
58 59 60 61 62 63 65 67 69 71 74 77 80 81 83 82 81 80 81 83 83 83 84 87 88 86 83 82 82 81 80 80 81 80 77 74 71 67 65 64 61 58 58 59 59 57 54 52 52 51 50 50 50 52 54 55 57 59 61 64 67 69 70 71 72 73 74 74 76 79 83 85 89 93 95 97 99 102 104 107 109 108 106 104 102
58 58 60 61 61 62 62 62 63 65 67 69 71 74 77 77 76 75 75 76 78 78 78 78 79 79 79 78 78 77 76 76 76 75 71 68 65 62 60 59 57 57 58 58 56 53 51 50 50 49 49 49 50 52 53 55 58 60 63 66 69 70 71 72 73 74 75 76 78 81 84 87 91 94 96 98 100 102 105 108 109 108 106 104 101
58 58 59 61 62 62 61 61 61 62 63 65 66 68 71 72 71 69 69 68 68 67 66 65 66 68 70 71 72 72 72 73 72 69 64 61 59 59 58 55 54 56 57 56 52 50 48 48 48 48 47 49 50 51 53 57 59 62 66 68 70 71 73 73 75 76 76 77 80 83 86 89 93 95 97 99 101 103 105 108 109 108 106 104 102
58 58 59 60 61 62 62 62 61 61 62 63 63 65 67 68 66 63 61 59 57 54 51 50 52 55 58 61 64 65 66 67 68 66 60 55 54 54 52 51 53 55 55 53 51 48 45 45 46 46 46 47 49 50 54 58 61 64 67 69 71 73 74 75 76 77 78 79 82 85 87 91 94 96 98 100 102 103 105 108 109 108 106 104 102
58 58 58 59 60 61 62 62 62 61 60 60 61 63 64 62 59 55 50 47 46 45 42 41 42 44 47 50 55 57 59 60 63 65 60 54 51 48 48 52 54 54 52 53 51 46 42 44 45 44 45 46 48 51 55 59 63 66 69 70 72 74 75 76 78 79 79 81 83 86 89 92 95 96 99 101 102 103 105 107 108 107 105 104 101
59 58 58 58 58 59 60 61 61 60 58 59 61 61 58 55 51 45 38 35 35 37 37 39 41 42 44 44 45 48 50 53 59 64 62 56 50 46 48 51 52 51 52 53 48 42 41 43 44 43 45 47 49 52 57 61 65 68 70 72 73 75 76 78 79 79 80 82 84 86 90 93 95 97 99 102 102 103 104 106 107 106 105 103 101
60 59 59 58 57 57 57 57 57 56 56 59 58 54 51 49 44 38 34 34 34 35 37 40 42 44 45 43 41 43 46 49 55 65 68 61 52 47 46 47 49 52 54 50 44 41 43 43 43 44 46 48 51 55 59 63 67 69 71 73 75 76 77 78 79 80 80 82 84 87 90 93 95 97 99 102 103 102 103 106 107 106 105 103 101
62 61 59 58 57 54 53 54 53 52 55 58 53 46 43 42 39 36 35 35 35 38 44 47 48 51 49 39 33 39 45 47 50 59 66 65 58 52 50 50 52 55 53 47 43 44 44 43 43 45 47 48 52 57 61 65 68 71 73 74 75 77 78 78 80 80 80 82 84 88 91 93 95 97 100 102 103 102 103 105 106 106 105 103 100
63 63 61 58 55 52 51 51 50 50 53 54 47 41 42 42 40 39 39 40 43 48 54 56 57 60 57 44 36 42 47 45 43 47 57 63 62 59 57 57 56 55 51 47 47 47 45 43 45 47 48 50 54 59 63 66 69 72 74 75 76 77 78 79 80 80 80 82 85 89 91 93 94 97 100 102 103 102 103 105 106 106 105 103 100
65 64 62 59 55 52 50 49 47 46 48 48 45 43 44 43 41 42 43 47 48 48 54 62 66 67 63 57 55 57 57 51 47 48 53 58 62 64 64 62 58 54 51 50 50 48 45 44 46 49 50 52 56 61 64 67 70 74 75 76 77 77 78 80 81 80 80 82 86 89 91 93 95 98 101 103 102 102 102 104 106 106 105 103 100
66 65 62 59 56 55 52 48 45 42 43 45 46 44 44 43 43 42 39 38 40 51 65 73 75 75 70 65 64 64 63 59 57 57 58 56 61 67 68 64 59 56 53 52 51 49 47 48 49 52 54 55 58 63 65 68 72 75 76 77 77 77 78 81 81 79 81 84 87 90 91 93 96 99 101 103 102 101 102 104 105 105 105 103 100
67 65 62 59 57 56 53 48 44 41 42 45 43 41 41 43 42 38 31 27 33 54 71 71 68 71 74 72 68 66 66 66 66 67 68 63 63 70 71 68 64 60 56 53 52 52 52 53 53 53 56 58 61 64 67 70 74 76 77 78 77 77 80 81 80 79 82 85 88 91 92 94 97 100 102 103 102 101 101 103 104 104 104 102 99
68 66 63 60 57 55 52 47 44 42 43 44 41 38 39 36 29 28 30 29 33 45 53 51 52 58 65 69 70 69 69 69 68 68 69 64 64 72 74 71 67 64 60 59 61 60 58 57 55 55 58 62 64 67 69 72 75 77 78 77 77 78 80 81 79 81 84 86 89 91 92 94 97 100 101 102 101 100 101 102 103 104 103 102 99
68 66 63 60 58 55 51 47 45 43 43 42 40 40 39 29 18 18 23 27 33 40 43 42 41 44 49 57 63 66 67 66 64 64 66 63 64 69 71 69 67 67 68 69 69 66 62 60 58 58 62 65 67 69 71 74 76 77 77 77 77 79 80 80 80 82 85 87 89 91 92 94 97 99 100 101 100 99 100 101 102 103 103 101 98
68 67 64 61 59 55 51 47 45 44 42 41 41 40 37 26 16 19 20 16 16 27 41 48 50 50 49 52 55 58 63 67 67 68 68 65 65 68 70 69 69 71 72 73 71 68 67 65 62 63 65 67 68 71 73 75 76 76 77 77 78 80 80 80 81 83 85 87 89 90 92 95 97 99 100 100 99 99 99 100 101 102 103 101 98
69 68 66 63 60 55 50 47 46 45 43 42 42 40 34 29 28 28 25 16 19 35 47 59 69 69 63 59 58 59 64 70 71 71 68 66 66 69 70 70 72 74 74 74 73 72 71 68 66 66 68 69 71 73 74 74 75 76 77 78 79 80 80 81 82 83 85 87 89 90 92 95 97 98 99 99 99 98 98 99 100 102 102 100 97
69 68 66 65 61 56 51 48 47 46 44 44 45 43 38 38 44 43 37 35 42 48 50 55 63 65 65 65 66 67 69 70 70 68 63 61 62 64 66 69 72 74 75 75 75 74 74 71 70 70 70 71 73 74 73 73 75 76 77 78 79 80 81 81 82 83 85 87 88 90 92 95 97 98 99 99 98 97 97 98 99 102 102 99 96
68 67 66 66 63 57 52 49 49 48 47 47 48 48 47 50 53 52 50 50 56 60 62 64 67 70 71 72 71 70 68 66 64 62 59 59 61 64 67 70 73 74 76 76 76 75 75 73 72 72 72 72 74 73 72 73 75 77 77 78 80 81 81 81 82 83 85 86 88 90 93 96 97 98 98 98 97 97 97 98 99 101 101 99 95
67 67 66 65 64 59 52 49 50 50 49 50 52 53 54 57 61 61 59 56 58 63 68 72 75 76 74 71 67 64 64 64 65 65 65 66 68 69 71 73 75 76 77 77 77 76 75 74 73 73 73 74 73 72 72 74 76 77 78 80 81 81 81 81 82 84 85 86 88 91 94 96 97 98 98 97 96 96 97 97 99 101 100 98 94
68 68 66 65 64 59 53 50 51 52 52 54 56 57 57 58 61 62 62 62 63 66 69 72 73 73 70 66 63 62 63 66 68 69 70 71 71 73 74 76 78 80 80 81 80 80 78 77 76 75 74 73 72 71 73 76 77 77 79 81 81 81 81 82 83 84 85 86 89 92 94 96 97 97 97 96 95 95 96 97 99 100 99 96 93
68 68 68 66 65 61 55 52 52 53 54 55 58 61 61 60 59 59 61 61 62 64 67 69 71 71 69 67 66 67 68 70 71 72 73 73 74 76 78 80 82 83 84 83 82 80 78 77 76 74 73 72 72 73 76 78 78 79 80 81 81 81 82 83 83 84 85 87 90 92 95 96 97 97 96 95 94 95 96 97 98 100 99 96 92
69 69 69 67 65 63 59 55 54 55 56 57 59 62 66 66 64 62 62 63 64 64 64 65 67 68 68 68 69 70 72 73 74 75 76 77 79 81 82 84 85 85 84 82 80 78 77 75 74 72 72 72 74 76 78 79 80 80 81 81 81 82 82 83 83 84 86 88 91 93 95 96 96 95 94 94 94 94 95 97 98 99 98 95 92
68 68 67 65 63 62 60 57 55 54 54 56 59 62 66 69 70 69 67 67 67 67 67 67 68 68 69 71 73 74 76 77 78 79 80 81 82 83 83 82 82 80 79 77 76 75 74 74 72 72 73 75 77 79 80 81 82 82 81 81 82 82 83 83 84 85 87 89 91 94 95 95 95 94 93 93 93 94 95 96 98 99 97 94 91
65 65 65 64 64 62 60 58 56 54 54 55 58 61 64 67 70 72 72 72 71 71 71 73 73 74 75 77 78 79 80 81 82 82 81 80 79 78 77 76 76 76 76 76 76 76 75 74 73 74 77 79 79 80 81 83 83 82 82 82 82 83 84 85 85 87 88 90 93 94 95 94 94 93 92 92 93 94 95 96 97 98 97 93 90
66 66 65 65 64 64 62 59 58 58 58 59 60 61 63 64 67 70 73 75 75 75 74 75 75 76 77 78 79 79 79 79 80 80 80 78 78 78 78 79 79 80 80 80 80 79 77 76 77 78 80 81 81 81 83 84 83 83 83 83 84 84 85 86 86 88 90 92 93 93 93 93 93 92 92 92 93 93 95 96 97 97 95 91 89
67 66 66 65 64 64 63 62 60 59 60 61 62 63 64 65 66 69 72 76 78 79 80 80 79 79 79 79 80 80 81 81 81 81 82 83 83 84 84 83 83 83 82 81 80 79 78 79 80 82 83 83 83 83 83 84 84 84 85 85 85 86 86 86 88 90 91 92 92 92 92 93 92 92 91 92 93 93 94 95 96 96 94 90 88
66 66 66 65 65 64 64 63 62 61 60 61 62 63 64 65 66 68 71 74 76 78 80 81 82 83 84 85 85 85 86 86 87 86 86 86 85 84 84 83 82 81 81 80 80 80 81 83 84 85 85 85 84 83 84 84 85 85 86 87 87 87 87 88 90 92 92 92 91 91 92 92 91 91 91 92 93 93 94 95 96 95 92 89 87
Wind_Direction
249 250 252 253 254 256 258 259 260 262 264 267 270 274 279 283 287 289 289 290 292 294 299 303 307 310 314 316 317 317 316 315 317 319 321 323 326 328 330 330 332 333 335 338 339 340 340 340 341 341 341 341 340 341 341 342 341 341 340 339 339 338 338 337 337 337 338 337 336 337 340 343 343 340 342 346 345 340 334 327 321 318 323 327 325
252 253 254 254 255 257 259 261 261 262 265 267 269 272 276 280 283 284 285 288 290 293 297 301 304 307 311 313 314 313 311 311 313 316 318 321 324 327 328 329 330 332 334 336 338 338 338 339 339 339 339 339 339 340 341 341 341 341 340 339 338 338 338 338 338 340 340 339 339 343 345 346 345 343 344 348 351 352 350 345 338 332 330 331 330
253 254 255 256 257 258 260 261 262 263 265 267 269 272 275 278 280 281 284 287 290 293 297 299 301 304 307 310 311 309 307 308 310 313 316 320 322 325 327 328 329 330 332 335 336 336 336 336 336 337 337 337 337 339 340 340 341 341 339 338 338 337 338 338 340 341 341 341 345 346 346 346 346 346 346 346 348 349 348 344 339 335 334 333 331
253 254 255 256 257 259 260 261 262 263 265 267 269 272 274 276 278 281 284 287 289 292 295 297 298 301 304 307 308 307 305 305 307 311 314 318 321 322 325 327 328 328 330 332 333 334 334 333 334 334 335 335 336 338 339 340 341 341 339 338 338 337 338 339 341 341 341 344 349 346 344 346 348 347 345 344 345 345 344 340 335 332 331 330 329
254 254 255 256 258 259 261 262 263 264 267 268 270 272 274 275 277 280 283 286 288 290 293 294 296 299 302 303 304 304 303 302 305 309 313 316 318 320 323 326 326 326 327 330 331 331 330 330 331 332 333 334 336 338 340 341 341 340 339 338 339 338 338 339 340 340 342 346 348 345 343 346 348 346 343 343 343 342 339 334 332 332 331 329 328
255 256 256 257 258 260 262 264 265 266 268 269 271 272 273 275 277 280 283 285 286 288 290 292 295 298 299 299 301 303 302 301 304 308 311 315 316 318 321 323 324 323 325 328 329 329 327 328 329 331 333 334 336 338 340 341 340 340 339 339 339 339 339 339 339 339 342 345 345 343 343 346 348 345 342 342 340 337 335 334 333 334 332 329 328
255 256 257 258 259 260 262 264 266 268 269 270 271 272 273 275 277 279 282 284 285 286 289 291 293 296 296 296 298 300 300 300 303 307 311 313 315 317 319 321 321 321 322 326 327 326 325 326 328 331 334 335 337 338 339 340 339 339 338 339 339 339 340 340 338 339 342 342 340 340 342 343 344 343 341 339 335 333 334 334 334 334 333 331 330
255 257 258 259 259 261 262 265 266 268 269 270 271 272 274 276 277 279 281 283 284 286 288 289 291 292 292 293 296 298 297 299 302 306 309 312 314 316 318 320 319 318 321 324 325 324 325 327 329 332 335 338 339 337 336 337 338 338 338 338 338 340 340 340 339 340 341 339 338 338 338 338 339 339 338 337 334 333 334 334 334 335 335 334 333
255 257 258 259 260 261 263 265 266 268 270 270 271 273 274 276 278 280 282 283 285 286 287 287 288 289 290 292 295 296 297 298 301 305 308 311 312 313 316 318 318 318 319 322 323 325 326 326 328 332 337 339 338 335 334 335 336 336 337 338 339 340 340 339 340 340 338 336 334 335 335 335 336 336 336 336 335 335 335 335 335 336 336 336 334
254 256 258 259 259 261 263 265 266 268 270 270 272 273 274 277 278 280 281 283 284 284 285 286 286 287 289 291 293 295 297 299 300 303 307 310 310 311 313 316 317 317 318 320 323 326 327 327 329 334 338 338 337 333 331 333 334 333 335 337 339 341 340 340 341 340 336 332 331 333 334 332 333 334 336 337 336 336 336 337 337 337 337 337 334
254 255 257 259 260 261 262 264 266 268 269 270 271 272 274 276 277 278 279 280 281 282 284 285 285 286 287 290 292 295 297 299 299 301 306 308 307 309 311 313 315 315 317 321 323 324 326 329 331 333 337 338 336 329 324 327 329 330 333 336 339 340 339 340 341 338 333 330 330 333 333 330 331 335 337 337 336 336 337 338 337 336 336 336 333
255 255 257 259 261 262 263 264 266 267 268 269 270 271 273 274 275 276 277 278 279 281 282 283 284 286 288 290 292 294 296 298 299 301 304 305 306 307 309 311 313 313 316 321 321 315 317 323 325 328 335 338 331 320 316 318 323 327 331 336 340 340 338 339 340 335 330 329 330 332 332 330 333 336 337 337 336 336 337 337 336 335 336 335 333
256 257 258 259 261 261 262 263 264 265 266 267 269 270 271 273 274 274 275 276 278 279 280 282 284 286 288 289 291 293 295 297 298 300 302 304 305 306 308 310 310 311 314 319 317 311 313 317 319 324 331 330 319 312 308 309 316 323 329 336 340 339 337 339 337 332 329 329 330 331 331 331 333 335 336 336 336 336 336 336 335 335 335 335 333
257 257 258 259 260 261 262 262 262 263 264 266 267 269 271 272 273 274 275 276 277 279 280 282 284 286 287 289 290 293 295 296 297 299 301 302 303 305 307 307 308 309 313 315 313 311 312 314 316 319 323 321 313 308 304 305 311 320 328 335 338 337 337 338 335 330 330 330 329 329 330 330 332 334 335 335 335 335 335 335 335 335 335 334 333
257 258 259 260 260 261 262 262 262 263 264 265 267 269 270 271 272 273 275 276 277 279 280 282 284 285 287 289 291 293 293 294 296 298 300 301 303 304 305 305 306 309 311 311 311 311 311 312 315 316 317 317 315 311 308 305 309 318 328 335 337 337 336 336 332 330 329 329 328 328 329 329 331 333 334 334 334 334 334 335 335 335 335 334 332
257 258 259 259 260 260 261 262 263 264 265 266 267 268 270 271 272 273 275 277 278 279 281 282 283 285 287 288 290 291 292 293 295 297 299 300 302 303 304 304 306 307 309 310 309 310 311 312 314 314 313 314 314 310 307 307 311 320 328 334 336 335 336 334 331 330 329 328 327 328 328 328 330 332 333 334 334 334 334 334 335 335 335 334 333
259 259 260 260 260 260 260 262 263 265 265 266 267 268 269 271 272 274 275 276 278 280 281 282 283 285 286 287 288 289 291 293 295 297 299 300 301 302 303 304 305 307 308 309 308 309 311 311 313 312 310 310 310 307 305 310 316 323 330 333 334 333 334 333 331 329 329 328 327 328 328 328 329 331 333 333 333 334 334 334 335 335 335 334 334
260 261 261 261 260 260 260 261 263 264 265 266 267 268 269 270 272 273 274 276 278 280 281 282 283 285 285 286 287 288 291 293 295 296 298 299 300 301 302 304 305 306 308 308 308 309 310 310 311 309 307 307 309 307 308 313 319 326 331 332 331 332 333 332 330 330 329 328 328 328 328 328 329 331 332 333 333 334 334 335 335 335 335 335 334
258 259 259 260 261 261 262 263 264 265 266 267 268 268 269 270 271 272 274 276 277 279 280 281 282 283 284 285 286 288 291 293 294 296 297 298 299 300 301 303 304 305 307 307 306 307 308 309 308 306 305 307 309 309 310 315 322 329 332 330 329 330 332 331 330 330 329 328 328 328 327 328 330 332 333 333 333 334 334 335 335 335 335 335 335
256 257 258 259 261 262 263 264 265 266 267 268 269 269 270 271 272 273 274 275 275 276 279 280 281 282 283 284 286 289 292 293 294 294 295 297 298 298 300 302 303 305 306 306 305 305 306 307 306 304 304 306 308 308 311 318 325 331 331 328 327 329 330 330 330 330 329 329 329 328 328 329 331 332 333 333 333 334 335 335 335 335 336 336 336
257 257 258 259 261 262 263 264 265 265 266 268 269 270 270 271 272 273 275 276 276 277 277 278 280 282 283 285 287 290 292 292 292 293 295 296 297 297 299 300 302 304 305 304 304 304 304 305 304 302 303 306 307 308 314 322 328 330 329 327 326 328 329 329 329 329 329 329 329 328 328 329 331 332 333 333 333 334 335 336 336 336 336 337 337
259 260 260 261 262 262 262 263 264 265 266 267 267 268 269 270 272 273 275 276 278 279 279 279 280 282 284 287 289 291 291 291 291 292 293 295 295 296 298 299 302 304 304 302 302 302 302 303 301 300 302 304 305 309 318 325 328 328 326 325 325 327 328 328 328 329 329 329 328 328 328 329 331 332 332 333 334 335 336 336 336 336 337 337 338
259 260 261 262 263 263 263 262 263 264 265 266 266 267 268 270 271 273 274 275 277 279 280 281 282 284 286 288 289 290 290 291 291 291 292 294 295 295 297 298 300 301 300 300 299 299 300 300 298 298 301 302 304 312 322 326 326 324 323 323 323 325 327 327 327 328 329 329 328 328 328 330 331 332 332 333 335 336 337 337 336 337 337 338 339
260 260 261 262 263 263 263 264 264 264 265 266 267 268 269 269 270 271 272 274 275 277 279 281 283 285 287 288 288 289 289 290 290 290 291 293 294 295 297 298 298 299 298 297 297 297 298 296 295 297 300 301 306 317 324 324 322 321 320 320 321 324 325 326 327 327 328 328 328 327 329 330 331 331 332 334 336 337 337 337 337 337 338 338 339
263 262 262 262 262 263 264 264 265 266 266 266 267 268 269 269 269 270 271 273 274 275 277 280 283 285 287 287 288 288 289 289 288 289 290 292 293 296 298 297 296 297 296 295 295 296 295 293 294 298 300 302 310 320 323 321 318 318 318 318 320 322 324 325 326 326 328 328 327 328 329 330 331 332 333 335 337 337 337 337 337 338 338 338 338
264 263 262 262 262 262 263 264 265 266 266 267 268 269 269 270 270 270 270 272 274 276 278 281 284 286 287 287 288 288 288 287 287 287 288 289 292 298 300 296 293 293 293 293 295 294 291 291 295 297 300 306 315 320 320 317 315 315 316 317 319 321 323 324 324 326 327 328 327 328 329 331 331 332 333 336 337 337 337 337 337 338 338 338 338
263 263 263 263 263 262 263 264 264 265 266 267 268 269 270 271 271 272 273 275 277 279 280 282 283 284 286 286 287 288 287 287 287 285 285 288 295 301 299 292 287 288 290 292 293 290 288 291 295 297 302 310 316 317 315 312 312 313 314 316 318 320 321 322 324 326 327 327 327 328 330 331 332 333 334 336 337 337 337 337 337 338 338 338 338
262 262 263 264 264 263 263 263 264 265 266 267 268 269 270 271 273 275 277 277 278 278 279 281 283 285 288 290 289 288 288 288 287 285 285 293 302 302 296 287 284 285 289 290 288 287 289 292 294 298 305 310 312 312 310 309 309 311 313 314 316 318 320 321 323 325 327 327 327 329 330 331 332 333 335 336 337 337 337 337 338 338 338 338 338
263 263 262 262 263 262 262 262 262 264 265 267 268 269 270 273 276 277 275 272 272 273 278 285 289 292 296 297 292 290 291 289 287 287 289 297 303 298 287 283 284 285 287 286 284 286 290 292 294 299 304 307 307 307 306 306 308 310 312 313 315 317 318 320 322 325 327 327 327 329 330 331 332 333 335 336 337 336 336 337 338 338 338 338 338
264 264 263 263 262 262 262 261 261 262 263 265 265 266 269 272 272 270 268 267 269 273 279 289 297 304 309 305 294 292 295 293 288 287 291 296 296 289 282 283 285 285 284 283 283 286 289 292 296 300 300 301 302 302 303 305 307 309 310 312 313 315 317 319 321 324 326 326 327 328 329 331 332 333 335 336 336 336 336 337 338 338 338 338 338
265 265 264 263 263 263 262 261 261 262 262 263 263 265 268 266 261 257 259 262 268 276 285 293 299 305 308 305 295 293 301 302 292 285 286 289 288 283 283 286 286 284 283 281 281 286 289 292 296 297 296 297 298 299 301 304 305 307 309 310 312 314 316 318 321 324 325 325 326 328 329 330 332 333 335 335 335 335 336 337 338 338 338 338 338
266 266 265 264 263 262 260 259 259 260 261 263 264 263 258 252 248 247 249 253 264 279 291 296 298 297 298 297 286 278 288 300 295 282 278 280 279 278 281 285 285 284 282 279 280 285 289 291 293 295 296 296 297 298 300 302 304 306 307 308 311 313 315 318 321 324 325 325 325 327 328 330 331 333 334 335 335 335 336 337 338 338 338 338 338
268 268 268 267 265 263 259 256 255 258 260 261 259 250 242 240 240 241 249 260 271 284 296 300 298 293 290 285 273 266 273 288 292 280 273 272 271 272 276 281 284 283 280 278 282 287 289 289 291 295 298 298 296 297 299 301 303 305 305 307 310 312 314 317 321 324 324 324 325 326 328 330 331 332 333 334 334 335 336 337 338 339 338 338 338
267 268 270 270 268 266 262 256 254 256 255 251 246 238 235 238 240 244 259 272 277 287 301 305 301 294 286 276 271 270 271 276 281 281 277 270 263 265 271 276 280 282 279 279 285 289 288 289 292 296 298 297 294 295 298 301 302 303 304 306 309 310 313 317 321 323 323 323 324 326 328 329 330 332 333 334 334 334 336 337 338 339 339 338 338
267 268 269 270 269 268 265 260 257 254 248 243 240 235 232 238 245 253 271 289 293 295 301 300 295 288 278 267 264 264 264 267 275 284 286 274 258 258 267 272 275 279 279 280 285 289 291 293 294 295 296 294 293 295 298 300 300 301 303 305 307 309 313 318 321 322 322 322 324 326 327 329 330 332 333 333 334 334 336 337 338 339 338 338 338
266 268 269 269 269 268 266 262 258 254 248 243 241 238 239 248 256 264 279 301 303 298 297 295 289 280 269 259 256 255 259 268 277 284 287 278 257 252 261 268 271 274 277 279 284 289 291 293 293 291 291 291 292 295 297 298 299 300 302 305 306 309 313 318 320 321 321 322 324 326 327 328 330 331 332 333 333 334 335 337 338 338 338 338 337
265 267 269 270 269 268 266 262 258 256 251 244 240 241 244 250 260 268 274 284 288 282 276 274 273 267 258 251 250 253 262 272 278 280 281 273 254 248 256 263 266 270 274 279 284 288 291 292 291 289 289 291 292 294 296 297 298 300 302 304 306 309 314 318 319 320 321 322 324 325 327 328 330 331 332 332 333 333 335 336 337 338 338 337 337
265 267 268 269 268 267 265 260 257 257 252 244 241 241 238 241 263 274 269 284 293 280 265 259 259 255 250 250 254 259 266 272 274 275 274 265 250 246 252 258 263 268 272 277 282 287 290 291 290 289 290 291 292 294 295 296 297 300 302 303 305 309 314 317 318 319 320 322 323 325 326 327 329 330 331 332 332 332 334 335 336 337 338 337 337
263 266 267 267 266 265 262 257 255 255 250 241 239 238 231 227 247 263 264 282 285 256 249 252 252 251 253 257 259 263 268 268 269 273 272 263 250 247 250 255 261 267 272 277 283 287 290 291 290 289 289 290 291 292 294 296 298 300 301 302 305 310 314 316 317 319 320 321 322 324 325 327 328 329 330 330 331 332 333 334 336 337 337 337 337
262 264 265 266 265 263 260 257 254 253 247 237 232 232 224 204 198 217 238 239 201 200 217 233 239 243 249 252 253 260 266 266 267 271 269 260 252 250 251 255 261 267 273 278 283 287 289 290 289 288 288 289 290 292 294 296 298 299 300 302 305 310 313 315 317 318 319 320 322 323 325 326 327 328 329 330 330 331 332 334 335 336 337 336 336
262 263 264 264 264 262 259 255 253 251 246 235 227 225 217 197 189 197 208 205 197 200 207 215 222 231 239 244 250 260 264 263 264 266 262 255 252 254 256 260 264 269 274 279 282 286 287 287 287 287 288 289 291 292 294 296 297 298 299 302 306 309 312 315 316 317 318 319 321 322 324 325 326 327 328 328 329 330 331 333 334 336 336 336 335
261 262 262 263 263 260 256 253 251 248 244 236 228 223 216 208 208 217 222 216 212 216 221 223 228 236 243 249 256 261 261 258 256 255 252 250 253 257 260 264 267 271 275 279 282 284 285 285 286 287 288 289 290 292 294 295 296 297 299 302 306 309 312 314 315 316 317 318 319 321 323 324 325 326 327 327 328 329 331 332 334 335 336 335 335
257 259 261 262 262 260 254 249 248 248 244 236 230 225 222 220 224 232 238 235 228 227 231 237 243 248 252 255 256 256 253 251 250 248 249 252 255 258 262 266 270 273 277 280 282 283 283 284 285 286 287 288 290 292 293 294 295 297 300 303 306 309 311 313 314 315 316 317 318 320 321 323 324 325 325 326 327 328 330 332 333 334 335 335 334
255 256 258 260 261 260 255 248 247 248 246 240 233 227 225 226 230 236 241 243 240 237 239 244 250 254 256 257 254 250 249 249 250 251 253 256 258 261 264 268 271 274 277 279 280 281 282 283 284 284 286 287 289 291 293 294 296 298 301 303 306 308 310 312 313 314 315 316 317 319 320 322 323 323 324 325 326 328 329 331 332 333 334 334 334
255 255 256 257 258 258 255 250 247 248 248 244 238 233 229 229 231 234 237 241 243 245 247 250 254 258 260 259 257 255 254 254 255 257 259 260 262 265 268 269 272 274 275 277 279 280 281 281 282 283 285 287 290 292 294 295 297 299 301 303 305 307 309 311 312 313 314 315 316 317 319 320 321 322 323 324 325 327 328 330 331 333 333 333 333
254 255 256 257 258 258 256 251 249 249 249 246 242 237 235 235 235 234 234 234 237 240 244 249 253 256 257 257 257 257 257 258 259 261 262 264 266 267 269 270 272 273 274 276 278 279 280 282 282 283 285 288 291 293 294 295 297 299 301 302 304 306 308 309 310 311 312 313 315 316 318 319 320 320 321 323 324 326 328 329 330 332 333 333 333
254 255 256 257 257 258 256 252 248 248 249 248 244 240 238 238 239 239 238 236 236 236 238 241 245 247 250 252 254 255 257 259 261 262 264 266 267 268 269 271 272 273 275 277 278 279 281 282 282 283 286 290 292 294 294 295 297 299 300 302 303 305 307 308 308 309 311 312 314 315 316 317 318 319 320 322 324 325 327 328 329 331 332 332 332
255 256 257 258 258 258 257 254 249 246 246 246 244 242 240 240 241 242 242 242 242 242 241 241 241 243 245 248 252 254 257 259 261 262 264 266 267 269 271 272 274 276 277 278 279 280 281 281 282 284 287 291 292 293 294 295 297 298 299 300 302 304 305 306 306 308 309 311 313 314 315 316 317 318 319 321 323 324 326 327 329 330 330 331 331
257 258 258 259 259 259 259 256 252 248 246 246 244 243 243 243 243 244 245 245 246 247 248 247 246 246 247 248 250 253 255 257 259 261 263 265 267 269 271 273 275 277 278 278 279 280 280 280 282 285 288 290 291 292 293 295 296 297 298 299 301 302 303 304 305 307 308 310 312 313 313 314 316 317 318 320 322 323 325 326 327 329 329 330 330
257 258 259 260 260 261 260 260 257 253 251 249 247 245 245 245 246 246 247 247 247 249 250 252 252 252 252 252 252 253 255 256 258 260 262 265 267 269 271 273 275 276 277 277 278 278 279 280 283 285 288 289 290 291 292 293 294 295 297 298 299 301 301 303 304 306 307 309 310 311 312 313 314 316 317 319 321 322 323 325 326 327 328 328 329
256 258 260 261 262 263 263 263 261 259 256 253 251 249 248 247 248 248 250 250 251 252 253 255 256 256 256 256 256 257 258 259 260 262 264 267 269 271 272 273 274 274 274 274 275 276 277 280 282 284 286 287 288 290 291 292 293 294 296 297 298 299 300 302 303 305 306 308 309 309 310 312 313 315 316 318 319 321 322 324 325 326 326 327 328
Height
10956 10957 10957 10957 10957 10958 10959 10959 10959 10960 10960 10960 10960 10960 10961 10960 10960 10959 10959 10958 10957 10957 10956 10955 10955 10954 10954 10953 10952 10950 10948 10946 10944 10943 10941 10939 10938 10936 10935 10933 10931 10928 10926 10924 10922 10920 10917 10914 10912 10909 10906 10903 10900 10898 10895 10892 10889 10886 10884 10881 10878 10876 10873 10869 10866 10862 10858 10854 10852 10849 10846 10843 10840 10836 10833 10831 10829 10827 10825 10826 10826 10827 10826 10823 10821
10953 10954 10954 10954 10954 10955 10955 10955 10956 10956 10956 10956 10956 10956 10957 10957 10956 10956 10955 10955 10954 10953 10953 10952 10952 10951 10951 10950 10949 10948 10946 10943 10941 10940 10938 10936 10934 10933 10931 10929 10927 10924 10922 10920 10918 10915 10913 10910 10907 10905 10902 10899 10896 10894 10891 10888 10886 10883 10879 10877 10874 10871 10868 10865 10862 10858 10855 10851 10848 10845 10841 10838 10836 10833 10831 10828 10826 10824 10823 10823 10824 10823 10821 10817 10814
10950 10950 10950 10951 10951 10952 10952 10952 10952 10952 10952 10952 10952 10953 10953 10953 10952 10952 10951 10952 10951 10950 10950 10949 10948 10948 10947 10947 10946 10944 10942 10940 10938 10937 10935 10933 10931 10929 10928 10926 10924 10921 10918 10916 10913 10911 10909 10906 10904 10901 10898 10895 10892 10890 10887 10885 10882 10879 10876 10873 10870 10866 10863 10860 10856 10853 10851 10848 10845 10841 10838 10836 10832 10829 10827 10824 10822 10820 10818 10817 10815 10813 10810 10807 10804
10946 10946 10946 10947 10947 10948 10948 10948 10948 10948 10949 10949 10949 10949 10949 10949 10948 10948 10948 10948 10947 10947 10947 10945 10945 10945 10944 10943 10942 10940 10939 10937 10935 10933 10932 10930 10929 10927 10925 10923 10921 10918 10915 10913 10910 10907 10905 10902 10899 10897 10895 10892 10889 10886 10884 10881 10879 10876 10873 10869 10866 10862 10858 10855 10851 10848 10845 10844 10842 10839 10836 10833 10829 10826 10823 10820 10818 10815 10812 10811 10809 10806 10803 10799 10795
10941 10941 10942 10943 10943 10943 10944 10944 10944 10944 10945 10945 10945 10945 10944 10944 10944 10944 10944 10944 10944 10943 10943 10942 10941 10941 10941 10939 10938 10937 10935 10933 10931 10930 10928 10927 10925 10923 10922 10920 10918 10915 10912 10910 10907 10904 10901 10898 10895 10893 10891 10888 10886 10883 10880 10877 10875 10872 10870 10866 10862 10858 10855 10850 10846 10843 10840 10838 10837 10836 10833 10829 10825 10822 10819 10816 10813 10810 10808 10807 10805 10801 10795 10790 10787
10937 10937 10937 10938 10938 10938 10939 10939 10939 10940 10940 10940 10940 10940 10939 10939 10940 10940 10940 10940 10940 10940 10939 10938 10937 10937 10937 10935 10933 10933 10931 10929 10928 10926 10925 10923 10922 10920 10918 10916 10914 10911 10909 10907 10904 10901 10897 10894 10892 10889 10886 10884 10882 10879 10877 10874 10871 10869 10866 10862 10858 10855 10851 10847 10842 10839 10835 10832 10831 10830 10828 10825 10822 10819 10815 10811 10808 10806 10804 10801 10797 10794 10788 10782 10778
10932 10932 10933 10933 10933 10933 10934 10935 10935 10935 10935 10935 10935 10935 10935 10935 10935 10936 10937 10936 10935 10935 10935 10934 10932 10932 10932 10930 10929 10929 10927 10926 10925 10923 10921 10920 10918 10916 10914 10912 10910 10907 10905 10903 10900 10897 10893 10890 10887 10885 10882 10880 10878 10876 10873 10870 10868 10865 10862 10858 10855 10852 10848 10844 10840 10835 10831 10828 10826 10824 10822 10820 10817 10815 10812 10809 10806 10803 10799 10793 10788 10785 10781 10774 10768
10927 10927 10928 10928 10928 10928 10929 10930 10930 10930 10930 10930 10930 10930 10930 10931 10931 10932 10932 10931 10931 10931 10930 10929 10928 10928 10927 10926 10925 10925 10923 10922 10921 10920 10918 10916 10914 10912 10910 10908 10905 10903 10901 10899 10896 10892 10889 10885 10883 10881 10878 10876 10874 10871 10869 10866 10863 10861 10858 10855 10852 10848 10844 10840 10836 10832 10828 10825 10823 10820 10817 10815 10813 10811 10808 10806 10802 10797 10792 10786 10779 10773 10769 10762 10756
10922 10922 10923 10922 10923 10924 10925 10925 10925 10925 10925 10925 10925 10925 10925 10926 10927 10928 10928 10927 10926 10925 10925 10924 10923 10922 10922 10921 10921 10920 10919 10919 10918 10916 10915 10913 10910 10908 10906 10904 10902 10899 10897 10895 10891 10887 10884 10881 10878 10876 10874 10872 10869 10866 10863 10861 10859 10856 10854 10851 10848 10845 10841 10837 10832 10827 10824 10821 10819 10816 10813 10810 10807 10805 10802 10798 10793 10787 10783 10777 10769 10761 10755 10749 10741
10918 10918 10917 10916 10918 10920 10921 10920 10920 10920 10919 10919 10919 10920 10920 10921 10922 10923 10923 10922 10920 10920 10920 10919 10918 10917 10917 10917 10917 10916 10915 10916 10914 10912 10911 10909 10906 10903 10902 10901 10898 10896 10894 10891 10887 10883 10880 10877 10875 10873 10871 10868 10863 10859 10857 10856 10855 10853 10851 10848 10844 10841 10836 10832 10827 10823 10820 10817 10814 10811 10808 10804 10801 10799 10794 10789 10784 10778 10772 10764 10757 10751 10745 10740 10733
10912 10913 10911 10911 10913 10915 10916 10915 10915 10914 10914 10914 10914 10914 10915 10916 10917 10917 10917 10916 10915 10915 10915 10913 10911 10911 10912 10912 10912 10911 10911 10911 10909 10907 10907 10904 10901 10899 10898 10897 10894 10892 10890 10888 10884 10879 10875 10874 10872 10871 10870 10866 10860 10856 10853 10852 10851 10850 10847 10844 10840 10836 10832 10827 10822 10818 10815 10812 10809 10806 10803 10798 10794 10790 10785 10780 10775 10769 10762 10756 10751 10746 10739 10733 10727
10906 10907 10906 10906 10908 10909 10909 10909 10909 10909 10908 10908 10908 10909 10910 10911 10911 10911 10911 10910 10910 10910 10909 10907 10906 10906 10906 10907 10906 10906 10906 10906 10904 10902 10902 10899 10896 10894 10893 10892 10890 10887 10886 10885 10881 10875 10871 10870 10869 10868 10870 10868 10864 10858 10852 10848 10848 10847 10844 10840 10836 10831 10826 10821 10817 10813 10811 10807 10802 10800 10796 10791 10786 10782 10777 10772 10767 10761 10755 10750 10744 10738 10731 10725 10717
10900 10901 10901 10901 10902 10902 10903 10903 10903 10902 10902 10902 10902 10903 10904 10905 10905 10905 10904 10903 10905 10905 10903 10901 10900 10900 10900 10900 10900 10900 10900 10900 10898 10897 10896 10894 10891 10889 10889 10888 10885 10882 10882 10882 10878 10872 10868 10867 10865 10865 10868 10869 10865 10858 10851 10845 10844 10844 10841 10836 10831 10827 10821 10816 10812 10809 10806 10801 10796 10792 10788 10783 10779 10776 10770 10765 10760 10754 10748 10742 10735 10728 10721 10715 10707
10893 10894 10894 10896 10896 10895 10895 10896 10895 10895 10895 10896 10897 10898 10899 10899 10898 10898 10897 10897 10898 10898 10897 10896 10895 10894 10894 10894 10894 10895 10895 10894 10892 10891 10890 10888 10886 10885 10884 10882 10879 10877 10877 10877 10874 10869 10866 10865 10862 10861 10863 10862 10859 10854 10848 10843 10841 10840 10837 10832 10827 10822 10816 10811 10807 10804 10801 10796 10791 10786 10781 10776 10773 10770 10765 10759 10754 10748 10742 10735 10727 10719 10711 10703 10696
10887 10888 10888 10890 10890 10888 10888 10888 10888 10888 10889 10891 10892 10893 10893 10892 10891 10891 10890 10890 10891 10891 10891 10891 10889 10888 10888 10888 10888 10889 10889 10888 10887 10886 10884 10882 10881 10880 10878 10875 10873 10871 10871 10871 10868 10865 10863 10861 10859 10857 10856 10854 10850 10848 10845 10841 10838 10836 10832 10827 10821 10816 10811 10806 10803 10799 10795 10792 10788 10782 10776 10770 10766 10763 10758 10753 10747 10741 10734 10727 10719 10711 10703 10694 10685
10881 10882 10882 10882 10882 10882 10880 10880 10880 10881 10883 10885 10887 10887 10887 10886 10885 10885 10884 10883 10883 10885 10885 10884 10882 10882 10883 10882 10883 10883 10882 10882 10881 10880 10878 10876 10875 10875 10872 10868 10866 10866 10865 10865 10862 10860 10858 10857 10855 10853 10851 10848 10844 10842 10840 10837 10835 10832 10826 10820 10815 10811 10806 10802 10798 10794 10790 10787 10783 10778 10772 10766 10760 10756 10751 10746 10739 10732 10725 10718 10710 10703 10694 10685 10675
10874 10874 10874 10874 10873 10873 10873 10873 10874 10874 10875 10878 10880 10881 10880 10880 10879 10879 10879 10877 10876 10877 10878 10877 10876 10877 10877 10876 10876 10876 10876 10876 10875 10873 10871 10870 10870 10869 10865 10861 10860 10858 10858 10857 10855 10854 10853 10852 10851 10848 10845 10843 10840 10837 10835 10832 10830 10826 10819 10814 10809 10805 10801 10797 10793 10788 10784 10781 10777 10772 10767 10762 10756 10750 10744 10738 10731 10724 10716 10708 10700 10692 10683 10674 10665
10865 10865 10865 10863 10862 10863 10865 10867 10867 10867 10868 10870 10873 10874 10874 10873 10873 10872 10872 10872 10871 10870 10871 10870 10870 10870 10870 10870 10870 10870 10870 10870 10869 10867 10865 10865 10864 10862 10859 10856 10853 10852 10851 10849 10846 10845 10845 10845 10845 10843 10839 10837 10834 10832 10829 10826 10823 10818 10812 10808 10804 10799 10796 10792 10787 10783 10778 10775 10771 10766 10762 10757 10751 10744 10737 10730 10723 10715 10707 10698 10689 10681 10672 10663 10653
10854 10854 10853 10851 10851 10854 10858 10860 10860 10860 10861 10862 10864 10866 10866 10865 10866 10865 10866 10867 10866 10863 10862 10863 10864 10863 10862 10862 10863 10864 10865 10863 10862 10860 10859 10858 10858 10856 10853 10850 10847 10845 10845 10843 10839 10838 10838 10838 10838 10836 10833 10830 10828 10825 10823 10820 10815 10810 10806 10802 10799 10794 10791 10787 10782 10777 10773 10769 10765 10761 10756 10750 10744 10737 10729 10722 10714 10707 10698 10690 10681 10671 10662 10652 10643
10843 10842 10842 10842 10844 10847 10851 10853 10853 10853 10854 10854 10855 10857 10857 10857 10858 10858 10858 10858 10858 10857 10856 10855 10855 10854 10854 10854 10856 10858 10858 10856 10854 10852 10851 10852 10852 10849 10846 10844 10840 10838 10838 10835 10833 10832 10831 10831 10831 10829 10827 10824 10821 10819 10817 10813 10807 10802 10799 10796 10793 10789 10785 10780 10775 10771 10767 10763 10759 10754 10748 10742 10736 10729 10722 10714 10707 10700 10691 10682 10672 10662 10652 10642 10633
10833 10833 10834 10836 10838 10841 10844 10845 10845 10846 10847 10848 10847 10847 10848 10850 10851 10850 10849 10847 10847 10849 10849 10847 10846 10846 10846 10847 10849 10851 10850 10847 10845 10843 10842 10844 10844 10842 10839 10837 10834 10832 10830 10828 10826 10825 10824 10824 10824 10823 10821 10818 10816 10814 10811 10805 10800 10796 10793 10790 10786 10783 10778 10773 10769 10764 10760 10756 10751 10747 10742 10735 10729 10722 10715 10709 10702 10693 10684 10673 10663 10653 10643 10633 10624
10827 10828 10828 10830 10832 10834 10836 10837 10836 10837 10838 10840 10839 10838 10839 10843 10844 10843 10842 10840 10837 10838 10838 10838 10837 10838 10839 10841 10842 10841 10840 10839 10837 10834 10834 10836 10836 10834 10832 10830 10828 10826 10823 10821 10819 10819 10818 10817 10816 10816 10815 10813 10810 10808 10804 10798 10794 10790 10787 10784 10780 10777 10773 10767 10763 10759 10754 10750 10745 10740 10735 10729 10723 10717 10710 10703 10695 10685 10675 10665 10654 10644 10634 10623 10615
10822 10822 10823 10824 10824 10825 10826 10827 10827 10828 10829 10830 10829 10828 10831 10837 10838 10836 10835 10834 10832 10830 10828 10827 10828 10830 10833 10833 10833 10831 10830 10830 10827 10824 10825 10827 10827 10826 10825 10823 10821 10819 10817 10814 10813 10812 10812 10811 10810 10809 10807 10806 10804 10802 10797 10792 10788 10785 10781 10778 10775 10771 10767 10762 10758 10753 10749 10744 10740 10735 10729 10723 10717 10711 10703 10696 10687 10677 10667 10657 10647 10636 10626 10615 10607
10816 10817 10817 10817 10816 10816 10816 10817 10818 10819 10820 10820 10819 10819 10822 10827 10830 10829 10828 10827 10827 10826 10823 10820 10819 10823 10825 10824 10823 10822 10822 10820 10817 10815 10816 10818 10818 10818 10818 10816 10814 10812 10810 10808 10807 10807 10806 10804 10803 10802 10800 10798 10797 10794 10790 10786 10783 10779 10776 10773 10769 10766 10761 10757 10753 10748 10744 10739 10734 10729 10724 10717 10711 10704 10697 10689 10679 10669 10659 10650 10640 10629 10619 10609 10601
10810 10811 10810 10810 10809 10809 10808 10808 10809 10810 10810 10810 10811 10811 10812 10815 10820 10822 10821 10819 10819 10820 10819 10816 10814 10815 10816 10815 10813 10813 10813 10811 10808 10806 10808 10809 10809 10811 10811 10809 10807 10806 10804 10801 10801 10801 10800 10798 10797 10795 10793 10791 10789 10786 10783 10781 10778 10774 10770 10767 10764 10760 10756 10752 10748 10743 10738 10734 10729 10724 10718 10711 10704 10697 10689 10681 10672 10662 10652 10642 10633 10624 10614 10605 10597
10803 10803 10802 10802 10801 10801 10801 10802 10802 10802 10801 10802 10803 10802 10802 10805 10809 10812 10813 10813 10813 10813 10813 10812 10810 10808 10807 10806 10804 10803 10803 10801 10800 10799 10801 10801 10801 10803 10804 10803 10801 10799 10797 10796 10795 10795 10793 10792 10790 10789 10787 10784 10782 10780 10778 10775 10772 10769 10765 10761 10757 10754 10750 10746 10742 10737 10732 10727 10723 10717 10711 10704 10697 10689 10681 10673 10664 10654 10645 10635 10626 10617 10608 10600 10592
10795 10795 10794 10794 10793 10793 10794 10795 10795 10795 10795 10795 10796 10795 10794 10796 10799 10802 10805 10807 10807 10807 10806 10805 10803 10801 10799 10797 10796 10794 10793 10792 10791 10791 10793 10794 10795 10796 10796 10796 10794 10792 10790 10790 10790 10788 10787 10785 10784 10783 10781 10778 10775 10774 10772 10770 10767 10763 10759 10755 10752 10748 10744 10740 10735 10731 10726 10721 10716 10710 10704 10697 10690 10681 10673 10665 10657 10648 10638 10629 10619 10610 10601 10593 10586
10787 10787 10787 10787 10786 10786 10787 10788 10788 10788 10788 10788 10789 10789 10787 10788 10791 10795 10797 10798 10798 10798 10798 10797 10796 10795 10793 10791 10789 10787 10786 10784 10782 10781 10784 10787 10789 10789 10789 10788 10786 10785 10785 10784 10783 10781 10780 10779 10778 10776 10774 10772 10770 10769 10767 10764 10761 10758 10753 10750 10746 10742 10738 10734 10729 10724 10720 10714 10709 10703 10696 10689 10682 10675 10666 10658 10650 10641 10632 10623 10614 10605 10596 10588 10580
10779 10779 10779 10779 10779 10779 10780 10781 10781 10782 10783 10783 10782 10781 10781 10783 10786 10788 10788 10788 10789 10789 10789 10789 10790 10789 10787 10784 10782 10780 10779 10777 10773 10771 10774 10779 10782 10782 10781 10781 10780 10780 10780 10778 10776 10775 10774 10773 10772 10770 10768 10766 10765 10764 10762 10759 10756 10752 10748 10744 10741 10737 10733 10729 10724 10719 10713 10708 10702 10696 10689 10682 10675 10668 10660 10652 10644 10636 10628 10619 10609 10600 10591 10584 10576
10770 10771 10771 10771 10772 10772 10773 10774 10774 10774 10775 10776 10775 10776 10778 10779 10780 10780 10780 10781 10781 10781 10781 10781 10781 10781 10780 10777 10774 10773 10774 10772 10766 10762 10764 10772 10777 10776 10775 10775 10775 10775 10774 10772 10770 10769 10768 10767 10766 10764 10762 10761 10760 10758 10756 10754 10750 10746 10742 10739 10736 10732 10728 10723 10718 10713 10707 10701 10695 10689 10683 10677 10670 10662 10654 10647 10639 10632 10624 10615 10606 10597 10588 10580 10572
10762 10763 10763 10764 10764 10765 10766 10767 10767 10767 10768 10767 10768 10771 10773 10773 10772 10773 10774 10774 10774 10773 10773 10774 10773 10773 10773 10770 10766 10766 10769 10766 10760 10756 10758 10766 10771 10771 10770 10771 10771 10769 10767 10766 10764 10763 10761 10760 10760 10758 10757 10756 10754 10753 10751 10748 10744 10741 10737 10734 10730 10726 10722 10718 10713 10707 10701 10695 10689 10684 10678 10671 10664 10657 10649 10642 10635 10628 10620 10611 10602 10592 10583 10575 10568
10754 10754 10755 10756 10757 10759 10759 10760 10760 10761 10760 10759 10761 10765 10766 10765 10765 10767 10766 10766 10767 10766 10766 10767 10766 10767 10769 10768 10766 10767 10769 10767 10762 10759 10759 10764 10768 10766 10765 10766 10766 10763 10761 10760 10758 10756 10755 10754 10754 10753 10752 10751 10749 10747 10745 10742 10739 10735 10732 10729 10725 10721 10717 10713 10707 10702 10696 10690 10684 10679 10673 10666 10659 10652 10645 10638 10630 10623 10615 10606 10597 10588 10579 10571 10564
10746 10746 10747 10749 10750 10752 10753 10753 10754 10754 10753 10753 10755 10758 10758 10758 10760 10761 10760 10760 10762 10761 10759 10759 10758 10758 10763 10768 10767 10766 10767 10768 10766 10765 10764 10765 10767 10764 10761 10761 10761 10758 10756 10754 10752 10750 10749 10748 10748 10747 10746 10745 10744 10742 10739 10736 10733 10729 10726 10723 10719 10716 10712 10707 10702 10696 10691 10685 10679 10673 10667 10661 10655 10648 10640 10633 10625 10618 10610 10601 10592 10583 10575 10567 10560
10738 10738 10739 10741 10743 10743 10744 10745 10745 10745 10745 10747 10749 10751 10752 10754 10755 10755 10755 10756 10755 10754 10753 10754 10754 10753 10758 10764 10763 10758 10757 10759 10762 10764 10764 10764 10764 10761 10758 10757 10755 10753 10750 10747 10746 10744 10742 10742 10741 10741 10740 10740 10739 10736 10734 10731 10727 10724 10720 10717 10714 10710 10706 10702 10697 10691 10685 10680 10674 10668 10662 10656 10649 10642 10635 10627 10620 10613 10605 10596 10587 10578 10571 10563 10556
10729 10731 10732 10734 10734 10734 10735 10735 10736 10737 10738 10741 10743 10745 10747 10748 10748 10751 10753 10749 10743 10740 10741 10746 10750 10751 10752 10756 10756 10752 10748 10748 10751 10754 10756 10757 10758 10756 10753 10752 10749 10746 10743 10741 10739 10737 10736 10735 10735 10735 10735 10734 10732 10730 10728 10725 10721 10718 10714 10711 10707 10704 10700 10696 10690 10685 10679 10674 10668 10662 10656 10650 10643 10636 10629 10622 10614 10607 10599 10591 10583 10575 10567 10560 10553
10721 10722 10724 10726 10726 10726 10727 10728 10730 10731 10732 10735 10738 10740 10741 10742 10744 10748 10748 10743 10738 10737 10738 10741 10743 10742 10742 10744 10746 10743 10740 10739 10741 10744 10745 10747 10750 10749 10746 10744 10742 10739 10737 10735 10733 10731 10730 10729 10730 10730 10729 10728 10726 10724 10722 10719 10715 10711 10708 10704 10701 10697 10693 10689 10684 10678 10673 10667 10661 10656 10650 10643 10637 10630 10623 10615 10608 10602 10595 10588 10581 10573 10565 10557 10550
10711 10714 10717 10718 10718 10719 10720 10722 10724 10724 10725 10729 10733 10734 10735 10736 10738 10741 10741 10740 10740 10740 10741 10741 10738 10733 10731 10733 10736 10736 10735 10735 10736 10736 10735 10737 10741 10741 10738 10736 10735 10733 10731 10730 10727 10726 10725 10725 10724 10724 10723 10720 10719 10717 10715 10712 10708 10705 10701 10697 10694 10691 10687 10682 10677 10672 10666 10660 10654 10649 10643 10637 10631 10624 10617 10610 10604 10598 10592 10585 10578 10570 10562 10555 10548
10703 10706 10709 10710 10711 10712 10713 10716 10717 10718 10720 10723 10726 10728 10729 10729 10729 10731 10735 10737 10734 10730 10731 10736 10737 10732 10728 10729 10731 10732 10732 10731 10729 10728 10728 10730 10732 10732 10730 10729 10727 10725 10724 10723 10722 10721 10720 10719 10718 10717 10715 10714 10712 10710 10708 10705 10701 10698 10694 10690 10687 10684 10680 10675 10670 10665 10659 10654 10648 10643 10637 10631 10625 10619 10613 10607 10601 10595 10589 10582 10574 10567 10560 10552 10545
10694 10697 10700 10702 10703 10704 10706 10709 10710 10712 10714 10718 10720 10722 10722 10721 10720 10724 10730 10734 10734 10732 10729 10729 10731 10730 10727 10726 10725 10723 10723 10722 10721 10721 10723 10724 10724 10723 10721 10720 10719 10717 10717 10716 10716 10715 10714 10713 10712 10711 10709 10707 10705 10703 10700 10697 10694 10690 10686 10683 10680 10677 10673 10669 10664 10658 10653 10647 10642 10637 10632 10626 10621 10615 10609 10603 10598 10592 10585 10579 10571 10564 10556 10549 10543
10686 10688 10690 10693 10695 10697 10700 10702 10704 10705 10708 10711 10714 10716 10716 10713 10712 10718 10726 10733 10739 10742 10737 10730 10726 10724 10720 10718 10716 10714 10712 10712 10713 10715 10717 10717 10715 10714 10713 10712 10711 10711 10710 10709 10709 10708 10707 10706 10706 10704 10702 10701 10698 10696 10693 10691 10687 10683 10679 10676 10673 10670 10666 10662 10657 10652 10646 10641 10636 10631 10626 10621 10616 10610 10605 10599 10594 10588 10582 10576 10568 10560 10553 10546 10539
10678 10680 10682 10684 10687 10690 10693 10695 10696 10698 10701 10704 10707 10710 10711 10709 10705 10709 10718 10726 10730 10732 10729 10723 10718 10714 10710 10707 10706 10705 10705 10706 10708 10709 10710 10709 10708 10706 10705 10703 10703 10704 10704 10703 10703 10702 10701 10700 10699 10698 10696 10694 10691 10689 10686 10684 10680 10676 10672 10669 10666 10663 10659 10655 10651 10645 10640 10635 10630 10626 10621 10616 10611 10605 10600 10595 10590 10584 10578 10572 10565 10558 10550 10543 10536
10670 10671 10673 10675 10677 10681 10685 10687 10689 10691 10693 10697 10700 10702 10705 10704 10700 10699 10705 10711 10713 10713 10710 10707 10703 10701 10699 10698 10697 10698 10700 10702 10703 10702 10701 10701 10701 10699 10696 10695 10696 10697 10697 10697 10697 10695 10694 10693 10692 10691 10689 10687 10684 10681 10679 10676 10672 10669 10665 10662 10658 10655 10652 10649 10644 10639 10634 10629 10625 10620 10615 10611 10606 10601 10595 10590 10585 10580 10574 10568 10562 10555 10547 10540 10533
10663 10664 10665 10666 10668 10672 10676 10679 10681 10683 10685 10688 10692 10695 10697 10697 10694 10691 10692 10695 10698 10699 10697 10695 10692 10692 10692 10692 10692 10693 10694 10695 10695 10694 10694 10694 10693 10692 10690 10690 10690 10691 10690 10690 10689 10688 10687 10686 10685 10684 10682 10679 10676 10674 10672 10668 10664 10661 10658 10654 10651 10648 10645 10642 10638 10633 10628 10623 10619 10614 10610 10605 10601 10596 10591 10586 10581 10575 10570 10564 10558 10551 10544 10537 10530
10655 10656 10658 10659 10660 10663 10668 10670 10672 10674 10677 10679 10682 10686 10689 10690 10689 10687 10686 10686 10687 10689 10689 10688 10687 10686 10685 10685 10686 10686 10687 10687 10686 10686 10686 10686 10686 10686 10685 10684 10684 10683 10682 10682 10681 10681 10680 10679 10678 10676 10674 10672 10669 10667 10664 10659 10656 10654 10651 10647 10644 10641 10638 10634 10631 10626 10622 10617 10613 10608 10604 10600 10596 10591 10586 10581 10576 10571 10565 10560 10554 10548 10541 10534 10527
10646 10647 10649 10651 10652 10655 10659 10662 10664 10665 10668 10670 10673 10676 10679 10681 10683 10683 10682 10681 10681 10682 10683 10682 10681 10679 10679 10679 10678 10678 10678 10677 10677 10678 10678 10678 10679 10678 10677 10676 10675 10674 10674 10674 10674 10673 10672 10671 10670 10669 10666 10664 10662 10659 10655 10651 10648 10647 10644 10640 10636 10633 10630 10627 10623 10619 10615 10611 10607 10602 10598 10594 10590 10586 10581 10576 10571 10566 10561 10555 10550 10544 10537 10530 10523
10637 10638 10640 10642 10644 10647 10650 10653 10655 10657 10659 10661 10664 10666 10668 10670 10671 10673 10673 10674 10674 10675 10675 10674 10673 10673 10672 10671 10669 10669 10668 10667 10667 10668 10669 10669 10669 10669 10668 10667 10666 10666 10665 10665 10665 10664 10664 10663 10662 10660 10658 10656 10654 10651 10646 10642 10640 10639 10636 10632 10629 10626 10623 10620 10616 10612 10609 10605 10600 10596 10592 10588 10584 10580 10576 10571 10566 10561 10556 10551 10545 10540 10533 10527 10520
10628 10629 10630 10633 10635 10637 10640 10643 10646 10649 10651 10651 10653 10655 10657 10658 10659 10661 10663 10664 10665 10665 10666 10666 10666 10666 10664 10661 10659 10659 10658 10658 10658 10658 10658 10659 10659 10658 10658 10658 10658 10657 10657 10656 10656 10655 10655 10654 10653 10651 10649 10648 10646 10642 10637 10633 10632 10630 10628 10625 10622 10619 10616 10613 10609 10605 10602 10598 10594 10589 10586 10582 10578 10575 10571 10566 10561 10556 10551 10546 10541 10535 10529 10523 10516
10619 10619 10621 10623 10625 10627 10630 10633 10636 10639 10640 10640 10641 10644 10646 10647 10648 10650 10651 10653 10654 10654 10655 10655 10655 10655 10654 10652 10649 10648 10649 10649 10649 10648 10648 10649 10649 10649 10649 10649 10649 10648 10647 10646 10646 10646 10645 10644 10643 10642 10640 10639 10637 10633 10628 10624 10623 10621 10619 10617 10614 10611 10608 10605 10602 10598 10595 10591 10587 10583 10579 10576 10572 10568 10564 10560 10555 10551 10546 10541 10536 10531 10525 10519 10513
10609 10610 10611 10613 10615 10617 10619 10622 10626 10628 10629 10630 10632 10636 10638 10638 10638 10639 10640 10641 10641 10641 10641 10642 10642 10642 10642 10641 10639 10638 10638 10639 10639 10638 10639 10639 10639 10639 10640 10640 10639 10638 10637 10636 10635 10634 10634 10633 10633 10632 10631 10630 10628 10624 10619 10616 10614 10612 10610 10608 10606 10604 10601 10598 10594 10591 10587 10584 10580 10577 10573 10569 10565 10562 10558 10553 10549 10545 10541 10536 10532 10526 10521 10515 10509
10600 10601 10602 10604 10606 10607 10609 10611 10614 10617 10619 10621 10623 10626 10628 10628 10628 10628 10628 10628 10629 10629 10628 10627 10629 10630 10630 10629 10628 10627 10627 10628 10629 10629 10629 10629 10629 10630 10630 10630 10629 10628 10626 10624 10624 10623 10623 10623 10622 10622 10621 10620 10619 10615 10611 10607 10604 10602 10600 10598 10597 10595 10592 10589 10586 10582 10579 10577 10574 10570 10566 10562 10558 10555 10551 10547 10543 10539 10535 10531 10527 10522 10517 10512 10506
10592 10593 10594 10596 10597 10598 10599 10601 10603 10605 10608 10610 10612 10614 10616 10617 10618 10617 10617 10617 10617 10618 10616 10615 10615 10616 10615 10614 10615 10616 10616 10616 10618 10620 10620 10620 10621 10621 10620 10619 10617 10616 10614 10613 10613 10613 10613 10613 10612 10612 10611 10610 10609 10607 10603 10598 10595 10593 10590 10587 10586 10585 10583 10580 10577 10574 10571 10569 10566 10563 10559 10555 10552 10548 10544 10540 10536 10533 10529 10525 10522 10517 10512 10507 10502